Year,Month,Day,Hour,Minute,Value (Times are PST for temperature in C)
2017,05,28,00,00,11.50
2017,05,28,00,01,11.50
2017,05,28,00,02,11.40
2017,05,28,00,03,11.40
2017,05,28,00,04,11.40
2017,05,28,00,05,11.30
2017,05,28,00,06,11.30
2017,05,28,00,07,11.30
2017,05,28,00,08,11.30
2017,05,28,00,09,11.30
2017,05,28,00,10,11.20
2017,05,28,00,11,11.20
2017,05,28,00,12,11.20
2017,05,28,00,13,11.20
2017,05,28,00,14,11.20
2017,05,28,00,15,11.20
2017,05,28,00,16,11.20
2017,05,28,00,17,11.10
2017,05,28,00,18,11.20
2017,05,28,00,19,11.20
2017,05,28,00,20,11.20
2017,05,28,00,21,11.20
2017,05,28,00,22,11.20
2017,05,28,00,23,11.20
2017,05,28,00,24,11.20
2017,05,28,00,25,11.20
2017,05,28,00,26,11.20
2017,05,28,00,27,11.20
2017,05,28,00,28,11.20
2017,05,28,00,29,11.10
2017,05,28,00,30,11.10
2017,05,28,00,31,11.10
2017,05,28,00,32,11.10
2017,05,28,00,33,11.10
2017,05,28,00,34,11.10
2017,05,28,00,35,11.10
2017,05,28,00,36,11.10
2017,05,28,00,37,11.10
2017,05,28,00,38,11.10
2017,05,28,00,39,11.10
2017,05,28,00,40,11.00
2017,05,28,00,41,11.00
2017,05,28,00,42,11.00
2017,05,28,00,43,11.00
2017,05,28,00,44,10.90
2017,05,28,00,45,10.90
2017,05,28,00,46,10.90
2017,05,28,00,47,10.90
2017,05,28,00,48,10.90
2017,05,28,00,49,10.90
2017,05,28,00,50,10.90
2017,05,28,00,51,10.90
2017,05,28,00,52,10.90
2017,05,28,00,53,10.90
2017,05,28,00,54,10.90
2017,05,28,00,55,10.90
2017,05,28,00,56,10.90
2017,05,28,00,57,10.90
2017,05,28,00,58,10.90
2017,05,28,00,59,10.90
2017,05,28,01,00,10.90
2017,05,28,01,01,10.90
2017,05,28,01,02,10.90
2017,05,28,01,03,10.80
2017,05,28,01,04,10.80
2017,05,28,01,05,10.80
2017,05,28,01,06,10.90
2017,05,28,01,07,10.90
2017,05,28,01,08,10.90
2017,05,28,01,09,11.00
2017,05,28,01,10,11.00
2017,05,28,01,11,11.00
2017,05,28,01,12,11.10
2017,05,28,01,13,11.10
2017,05,28,01,14,11.10
2017,05,28,01,15,11.10
2017,05,28,01,16,11.10
2017,05,28,01,17,11.20
2017,05,28,01,18,11.20
2017,05,28,01,19,11.20
2017,05,28,01,20,11.20
2017,05,28,01,21,11.20
2017,05,28,01,22,11.20
2017,05,28,01,23,11.20
2017,05,28,01,24,11.10
2017,05,28,01,25,11.10
2017,05,28,01,26,11.10
2017,05,28,01,27,11.10
2017,05,28,01,28,11.00
2017,05,28,01,29,11.00
2017,05,28,01,30,11.00
2017,05,28,01,31,11.00
2017,05,28,01,32,11.00
2017,05,28,01,33,11.00
2017,05,28,01,34,11.00
2017,05,28,01,35,11.00
2017,05,28,01,36,10.90
2017,05,28,01,37,10.90
2017,05,28,01,38,10.90
2017,05,28,01,39,10.90
2017,05,28,01,40,10.90
2017,05,28,01,41,10.80
2017,05,28,01,42,10.80
2017,05,28,01,43,10.80
2017,05,28,01,44,10.80
2017,05,28,01,45,10.80
2017,05,28,01,46,10.80
2017,05,28,01,47,10.80
2017,05,28,01,48,10.80
2017,05,28,01,49,10.80
2017,05,28,01,50,10.80
2017,05,28,01,51,10.80
2017,05,28,01,52,10.80
2017,05,28,01,53,10.80
2017,05,28,01,54,10.80
2017,05,28,01,55,10.80
2017,05,28,01,56,10.80
2017,05,28,01,57,10.80
2017,05,28,01,58,10.80
2017,05,28,01,59,10.70
2017,05,28,02,00,10.70
2017,05,28,02,01,10.70
2017,05,28,02,02,10.70
2017,05,28,02,03,10.70
2017,05,28,02,04,10.80
2017,05,28,02,05,10.80
2017,05,28,02,06,10.80
2017,05,28,02,07,10.80
2017,05,28,02,08,10.90
2017,05,28,02,09,10.90
2017,05,28,02,10,10.90
2017,05,28,02,11,10.80
2017,05,28,02,12,10.80
2017,05,28,02,13,10.80
2017,05,28,02,14,10.80
2017,05,28,02,15,10.80
2017,05,28,02,16,10.80
2017,05,28,02,17,10.80
2017,05,28,02,18,10.70
2017,05,28,02,19,10.70
2017,05,28,02,20,10.70
2017,05,28,02,21,10.70
2017,05,28,02,22,10.60
2017,05,28,02,23,10.60
2017,05,28,02,24,10.60
2017,05,28,02,25,10.60
2017,05,28,02,26,10.60
2017,05,28,02,27,10.60
2017,05,28,02,28,10.60
2017,05,28,02,29,10.60
2017,05,28,02,30,10.50
2017,05,28,02,31,10.50
2017,05,28,02,32,10.50
2017,05,28,02,33,10.50
2017,05,28,02,34,10.50
2017,05,28,02,35,10.50
2017,05,28,02,36,10.50
2017,05,28,02,37,10.50
2017,05,28,02,38,10.50
2017,05,28,02,39,10.40
2017,05,28,02,40,10.40
2017,05,28,02,41,10.40
2017,05,28,02,42,10.40
2017,05,28,02,43,10.40
2017,05,28,02,44,10.40
2017,05,28,02,45,10.40
2017,05,28,02,46,10.40
2017,05,28,02,47,10.40
2017,05,28,02,48,10.40
2017,05,28,02,49,10.40
2017,05,28,02,50,10.40
2017,05,28,02,51,10.40
2017,05,28,02,52,10.40
2017,05,28,02,53,10.40
2017,05,28,02,54,10.40
2017,05,28,02,55,10.40
2017,05,28,02,56,10.30
2017,05,28,02,57,10.30
2017,05,28,02,58,10.30
2017,05,28,02,59,10.30
2017,05,28,03,00,10.30
2017,05,28,03,01,10.30
2017,05,28,03,02,10.30
2017,05,28,03,03,10.40
2017,05,28,03,04,10.30
2017,05,28,03,05,10.30
2017,05,28,03,06,10.30
2017,05,28,03,07,10.30
2017,05,28,03,08,10.30
2017,05,28,03,09,10.30
2017,05,28,03,10,10.30
2017,05,28,03,11,10.30
2017,05,28,03,12,10.30
2017,05,28,03,13,10.30
2017,05,28,03,14,10.30
2017,05,28,03,15,10.30
2017,05,28,03,16,10.30
2017,05,28,03,17,10.30
2017,05,28,03,18,10.40
2017,05,28,03,19,10.40
2017,05,28,03,20,10.40
2017,05,28,03,21,10.40
2017,05,28,03,22,10.30
2017,05,28,03,23,10.40
2017,05,28,03,24,10.40
2017,05,28,03,25,10.40
2017,05,28,03,26,10.40
2017,05,28,03,27,10.40
2017,05,28,03,28,10.50
2017,05,28,03,29,10.50
2017,05,28,03,30,10.50
2017,05,28,03,31,10.40
2017,05,28,03,32,10.40
2017,05,28,03,33,10.50
2017,05,28,03,34,10.40
2017,05,28,03,35,10.50
2017,05,28,03,36,10.40
2017,05,28,03,37,10.50
2017,05,28,03,38,10.50
2017,05,28,03,39,10.50
2017,05,28,03,40,10.50
2017,05,28,03,41,10.50
2017,05,28,03,42,10.50
2017,05,28,03,43,10.50
2017,05,28,03,44,10.50
2017,05,28,03,45,10.50
2017,05,28,03,46,10.50
2017,05,28,03,47,10.60
2017,05,28,03,48,10.60
2017,05,28,03,49,10.60
2017,05,28,03,50,10.60
2017,05,28,03,51,10.60
2017,05,28,03,52,10.60
2017,05,28,03,53,10.60
2017,05,28,03,54,10.60
2017,05,28,03,55,10.60
2017,05,28,03,56,10.50
2017,05,28,03,57,10.50
2017,05,28,03,58,10.50
2017,05,28,03,59,10.50
2017,05,28,04,00,10.40
2017,05,28,04,01,10.40
2017,05,28,04,02,10.40
2017,05,28,04,03,10.40
2017,05,28,04,04,10.40
2017,05,28,04,05,10.40
2017,05,28,04,06,10.50
2017,05,28,04,07,10.50
2017,05,28,04,08,10.50
2017,05,28,04,09,10.50
2017,05,28,04,10,10.50
2017,05,28,04,11,10.50
2017,05,28,04,12,10.40
2017,05,28,04,13,10.40
2017,05,28,04,14,10.40
2017,05,28,04,15,10.40
2017,05,28,04,16,10.40
2017,05,28,04,17,10.50
2017,05,28,04,18,10.50
2017,05,28,04,19,10.50
2017,05,28,04,20,10.50
2017,05,28,04,21,10.40
2017,05,28,04,22,10.40
2017,05,28,04,23,10.40
2017,05,28,04,24,10.40
2017,05,28,04,25,10.40
2017,05,28,04,26,10.40
2017,05,28,04,27,10.40
2017,05,28,04,28,10.50
2017,05,28,04,29,10.50
2017,05,28,04,30,10.50
2017,05,28,04,31,10.50
2017,05,28,04,32,10.40
2017,05,28,04,33,10.40
2017,05,28,04,34,10.40
2017,05,28,04,35,10.40
2017,05,28,04,36,10.40
2017,05,28,04,37,10.50
2017,05,28,04,38,10.50
2017,05,28,04,39,10.60
2017,05,28,04,40,10.60
2017,05,28,04,41,10.60
2017,05,28,04,42,10.60
2017,05,28,04,43,10.60
2017,05,28,04,44,10.60
2017,05,28,04,45,10.60
2017,05,28,04,46,10.50
2017,05,28,04,47,10.50
2017,05,28,04,48,10.50
2017,05,28,04,49,10.60
2017,05,28,04,50,10.60
2017,05,28,04,51,10.60
2017,05,28,04,52,10.60
2017,05,28,04,53,10.60
2017,05,28,04,54,10.60
2017,05,28,04,55,10.50
2017,05,28,04,56,10.50
2017,05,28,04,57,10.50
2017,05,28,04,58,10.40
2017,05,28,04,59,10.40
2017,05,28,05,00,10.40
2017,05,28,05,01,10.40
2017,05,28,05,02,10.30
2017,05,28,05,03,10.30
2017,05,28,05,04,10.30
2017,05,28,05,05,10.30
2017,05,28,05,06,10.30
2017,05,28,05,07,10.30
2017,05,28,05,08,10.30
2017,05,28,05,09,10.20
2017,05,28,05,10,10.20
2017,05,28,05,11,10.20
2017,05,28,05,12,10.20
2017,05,28,05,13,10.20
2017,05,28,05,14,10.20
2017,05,28,05,15,10.20
2017,05,28,05,16,10.20
2017,05,28,05,17,10.10
2017,05,28,05,18,10.10
2017,05,28,05,19,10.10
2017,05,28,05,20,10.10
2017,05,28,05,21,10.10
2017,05,28,05,22,10.10
2017,05,28,05,23,10.10
2017,05,28,05,24,10.10
2017,05,28,05,25,10.10
2017,05,28,05,26,10.10
2017,05,28,05,27,10.10
2017,05,28,05,28,10.10
2017,05,28,05,29,10.10
2017,05,28,05,30,10.10
2017,05,28,05,31,10.10
2017,05,28,05,32,10.10
2017,05,28,05,33,10.10
2017,05,28,05,34,10.20
2017,05,28,05,35,10.20
2017,05,28,05,36,10.20
2017,05,28,05,37,10.20
2017,05,28,05,38,10.20
2017,05,28,05,39,10.20
2017,05,28,05,40,10.20
2017,05,28,05,41,10.20
2017,05,28,05,42,10.20
2017,05,28,05,43,10.20
2017,05,28,05,44,10.10
2017,05,28,05,45,10.10
2017,05,28,05,46,10.10
2017,05,28,05,47,10.10
2017,05,28,05,48,10.10
2017,05,28,05,49,10.10
2017,05,28,05,50,10.10
2017,05,28,05,51,10.00
2017,05,28,05,52,10.10
2017,05,28,05,53,10.00
2017,05,28,05,54,10.00
2017,05,28,05,55,10.00
2017,05,28,05,56,10.00
2017,05,28,05,57,10.00
2017,05,28,05,58,10.00
2017,05,28,05,59,10.10
2017,05,28,06,00,10.10
2017,05,28,06,01,10.10
2017,05,28,06,02,10.10
2017,05,28,06,03,10.10
2017,05,28,06,04,10.20
2017,05,28,06,05,10.20
2017,05,28,06,06,10.20
2017,05,28,06,07,10.20
2017,05,28,06,08,10.30
2017,05,28,06,09,10.30
2017,05,28,06,10,10.30
2017,05,28,06,11,10.30
2017,05,28,06,12,10.30
2017,05,28,06,13,10.40
2017,05,28,06,14,10.40
2017,05,28,06,15,10.40
2017,05,28,06,16,10.40
2017,05,28,06,17,10.40
2017,05,28,06,18,10.50
2017,05,28,06,19,10.50
2017,05,28,06,20,10.60
2017,05,28,06,21,10.60
2017,05,28,06,22,10.60
2017,05,28,06,23,10.60
2017,05,28,06,24,10.70
2017,05,28,06,25,10.70
2017,05,28,06,26,10.70
2017,05,28,06,27,10.70
2017,05,28,06,28,10.80
2017,05,28,06,29,10.80
2017,05,28,06,30,10.80
2017,05,28,06,31,10.80
2017,05,28,06,32,10.80
2017,05,28,06,33,10.90
2017,05,28,06,34,10.90
2017,05,28,06,35,10.90
2017,05,28,06,36,10.90
2017,05,28,06,37,10.90
2017,05,28,06,38,10.90
2017,05,28,06,39,11.00
2017,05,28,06,40,11.00
2017,05,28,06,41,11.00
2017,05,28,06,42,11.10
2017,05,28,06,43,11.10
2017,05,28,06,44,11.10
2017,05,28,06,45,11.10
2017,05,28,06,46,11.10
2017,05,28,06,47,11.20
2017,05,28,06,48,11.20
2017,05,28,06,49,11.20
2017,05,28,06,50,11.20
2017,05,28,06,51,11.20
2017,05,28,06,52,11.30
2017,05,28,06,53,11.30
2017,05,28,06,54,11.30
2017,05,28,06,55,11.40
2017,05,28,06,56,11.40
2017,05,28,06,57,11.40
2017,05,28,06,58,11.50
2017,05,28,06,59,11.50
2017,05,28,07,00,11.60
2017,05,28,07,01,11.60
2017,05,28,07,02,11.60
2017,05,28,07,03,11.70
2017,05,28,07,04,11.70
2017,05,28,07,05,11.70
2017,05,28,07,06,11.70
2017,05,28,07,07,11.70
2017,05,28,07,08,11.70
2017,05,28,07,09,11.80
2017,05,28,07,10,11.80
2017,05,28,07,11,11.80
2017,05,28,07,12,11.80
2017,05,28,07,13,11.80
2017,05,28,07,14,11.80
2017,05,28,07,15,11.80
2017,05,28,07,16,11.90
2017,05,28,07,17,11.90
2017,05,28,07,18,11.90
2017,05,28,07,19,12.00
2017,05,28,07,20,12.00
2017,05,28,07,21,12.10
2017,05,28,07,22,12.10
2017,05,28,07,23,12.10
2017,05,28,07,24,12.10
2017,05,28,07,25,12.10
2017,05,28,07,26,12.20
2017,05,28,07,27,12.20
2017,05,28,07,28,12.20
2017,05,28,07,29,12.20
2017,05,28,07,30,12.20
2017,05,28,07,31,12.20
2017,05,28,07,32,12.30
2017,05,28,07,33,12.30
2017,05,28,07,34,12.30
2017,05,28,07,35,12.40
2017,05,28,07,36,12.40
2017,05,28,07,37,12.50
2017,05,28,07,38,12.50
2017,05,28,07,39,12.60
2017,05,28,07,40,12.60
2017,05,28,07,41,12.70
2017,05,28,07,42,12.70
2017,05,28,07,43,12.70
2017,05,28,07,44,12.80
2017,05,28,07,45,12.80
2017,05,28,07,46,12.90
2017,05,28,07,47,12.90
2017,05,28,07,48,12.90
2017,05,28,07,49,13.00
2017,05,28,07,50,13.00
2017,05,28,07,51,13.10
2017,05,28,07,52,13.10
2017,05,28,07,53,13.10
2017,05,28,07,54,13.20
2017,05,28,07,55,13.20
2017,05,28,07,56,13.30
2017,05,28,07,57,13.40
2017,05,28,07,58,13.50
2017,05,28,07,59,13.50
2017,05,28,08,00,13.60
2017,05,28,08,01,13.70
2017,05,28,08,02,13.70
2017,05,28,08,03,13.80
2017,05,28,08,04,13.80
2017,05,28,08,05,13.80
2017,05,28,08,06,13.90
2017,05,28,08,07,13.90
2017,05,28,08,08,14.00
2017,05,28,08,09,14.00
2017,05,28,08,10,14.10
2017,05,28,08,11,14.20
2017,05,28,08,12,14.30
2017,05,28,08,13,14.40
2017,05,28,08,14,14.50
2017,05,28,08,15,14.50
2017,05,28,08,16,14.60
2017,05,28,08,17,14.60
2017,05,28,08,18,14.70
2017,05,28,08,19,14.80
2017,05,28,08,20,14.80
2017,05,28,08,21,14.90
2017,05,28,08,22,15.00
2017,05,28,08,23,15.10
2017,05,28,08,24,15.20
2017,05,28,08,25,15.30
2017,05,28,08,26,15.30
2017,05,28,08,27,15.40
2017,05,28,08,28,15.50
2017,05,28,08,29,15.60
2017,05,28,08,30,15.70
2017,05,28,08,31,15.70
2017,05,28,08,32,15.80
2017,05,28,08,33,15.80
2017,05,28,08,34,15.80
2017,05,28,08,35,15.90
2017,05,28,08,36,15.90
2017,05,28,08,37,16.00
2017,05,28,08,38,16.00
2017,05,28,08,39,16.00
2017,05,28,08,40,16.00
2017,05,28,08,41,16.00
2017,05,28,08,42,16.10
2017,05,28,08,43,16.10
2017,05,28,08,44,16.20
2017,05,28,08,45,16.30
2017,05,28,08,46,16.40
2017,05,28,08,47,16.40
2017,05,28,08,48,16.50
2017,05,28,08,49,16.60
2017,05,28,08,50,16.70
2017,05,28,08,51,16.70
2017,05,28,08,52,16.80
2017,05,28,08,53,16.90
2017,05,28,08,54,17.00
2017,05,28,08,55,17.10
2017,05,28,08,56,17.20
2017,05,28,08,57,17.30
2017,05,28,08,58,17.30
2017,05,28,08,59,17.40
2017,05,28,09,00,17.40
2017,05,28,09,01,17.40
2017,05,28,09,02,17.50
2017,05,28,09,03,17.50
2017,05,28,09,04,17.60
2017,05,28,09,05,17.60
2017,05,28,09,06,17.70
2017,05,28,09,07,17.80
2017,05,28,09,08,17.80
2017,05,28,09,09,17.90
2017,05,28,09,10,17.90
2017,05,28,09,11,18.00
2017,05,28,09,12,18.10
2017,05,28,09,13,18.20
2017,05,28,09,14,18.20
2017,05,28,09,15,18.30
2017,05,28,09,16,18.30
2017,05,28,09,17,18.30
2017,05,28,09,18,18.40
2017,05,28,09,19,18.40
2017,05,28,09,20,18.50
2017,05,28,09,21,18.60
2017,05,28,09,22,18.60
2017,05,28,09,23,18.70
2017,05,28,09,24,18.80
2017,05,28,09,25,18.90
2017,05,28,09,26,19.00
2017,05,28,09,27,19.00
2017,05,28,09,28,19.10
2017,05,28,09,29,19.10
2017,05,28,09,30,19.20
2017,05,28,09,31,19.20
2017,05,28,09,32,19.20
2017,05,28,09,33,19.20
2017,05,28,09,34,19.20
2017,05,28,09,35,19.20
2017,05,28,09,36,19.20
2017,05,28,09,37,19.20
2017,05,28,09,38,19.30
2017,05,28,09,39,19.30
2017,05,28,09,40,19.30
2017,05,28,09,41,19.30
2017,05,28,09,42,19.40
2017,05,28,09,43,19.40
2017,05,28,09,44,19.50
2017,05,28,09,45,19.60
2017,05,28,09,46,19.60
2017,05,28,09,47,19.70
2017,05,28,09,48,19.80
2017,05,28,09,49,19.80
2017,05,28,09,50,19.90
2017,05,28,09,51,19.90
2017,05,28,09,52,19.90
2017,05,28,09,53,19.90
2017,05,28,09,54,19.90
2017,05,28,09,55,19.90
2017,05,28,09,56,19.90
2017,05,28,09,57,19.90
2017,05,28,09,58,19.90
2017,05,28,09,59,19.90
2017,05,28,10,00,20.00
2017,05,28,10,01,20.00
2017,05,28,10,02,20.10
2017,05,28,10,03,20.10
2017,05,28,10,04,20.20
2017,05,28,10,05,20.20
2017,05,28,10,06,20.30
2017,05,28,10,07,20.30
2017,05,28,10,08,20.30
2017,05,28,10,09,20.30
2017,05,28,10,10,20.40
2017,05,28,10,11,20.40
2017,05,28,10,12,20.40
2017,05,28,10,13,20.40
2017,05,28,10,14,20.30
2017,05,28,10,15,20.30
2017,05,28,10,16,20.30
2017,05,28,10,17,20.30
2017,05,28,10,18,20.30
2017,05,28,10,19,20.30
2017,05,28,10,20,20.30
2017,05,28,10,21,20.30
2017,05,28,10,22,20.30
2017,05,28,10,23,20.40
2017,05,28,10,24,20.50
2017,05,28,10,25,20.50
2017,05,28,10,26,20.60
2017,05,28,10,27,20.50
2017,05,28,10,28,20.50
2017,05,28,10,29,20.40
2017,05,28,10,30,20.30
2017,05,28,10,31,20.20
2017,05,28,10,32,20.10
2017,05,28,10,33,20.00
2017,05,28,10,34,19.90
2017,05,28,10,35,19.90
2017,05,28,10,36,19.90
2017,05,28,10,37,19.90
2017,05,28,10,38,19.90
2017,05,28,10,39,20.00
2017,05,28,10,40,20.00
2017,05,28,10,41,20.10
2017,05,28,10,42,20.10
2017,05,28,10,43,20.10
2017,05,28,10,44,20.20
2017,05,28,10,45,20.20
2017,05,28,10,46,20.20
2017,05,28,10,47,20.30
2017,05,28,10,48,20.40
2017,05,28,10,49,20.40
2017,05,28,10,50,20.50
2017,05,28,10,51,20.60
2017,05,28,10,52,20.70
2017,05,28,10,53,20.70
2017,05,28,10,54,20.80
2017,05,28,10,55,20.90
2017,05,28,10,56,20.90
2017,05,28,10,57,21.00
2017,05,28,10,58,21.00
2017,05,28,10,59,21.10
2017,05,28,11,00,21.10
2017,05,28,11,01,21.10
2017,05,28,11,02,21.20
2017,05,28,11,03,21.20
2017,05,28,11,04,21.20
2017,05,28,11,05,21.20
2017,05,28,11,06,21.20
2017,05,28,11,07,21.30
2017,05,28,11,08,21.40
2017,05,28,11,09,21.40
2017,05,28,11,10,21.50
2017,05,28,11,11,21.60
2017,05,28,11,12,21.60
2017,05,28,11,13,21.70
2017,05,28,11,14,21.80
2017,05,28,11,15,21.80
2017,05,28,11,16,21.90
2017,05,28,11,17,22.00
2017,05,28,11,18,22.10
2017,05,28,11,19,22.10
2017,05,28,11,20,22.20
2017,05,28,11,21,22.20
2017,05,28,11,22,22.20
2017,05,28,11,23,22.30
2017,05,28,11,24,22.30
2017,05,28,11,25,22.40
2017,05,28,11,26,22.40
2017,05,28,11,27,22.50
2017,05,28,11,28,22.50
2017,05,28,11,29,22.60
2017,05,28,11,30,22.60
2017,05,28,11,31,22.70
2017,05,28,11,32,22.80
2017,05,28,11,33,22.80
2017,05,28,11,34,22.90
2017,05,28,11,35,23.00
2017,05,28,11,36,23.10
2017,05,28,11,37,23.10
2017,05,28,11,38,23.10
2017,05,28,11,39,23.10
2017,05,28,11,40,23.10
2017,05,28,11,41,23.20
2017,05,28,11,42,23.20
2017,05,28,11,43,23.20
2017,05,28,11,44,23.20
2017,05,28,11,45,23.20
2017,05,28,11,46,23.20
2017,05,28,11,47,23.20
2017,05,28,11,48,23.20
2017,05,28,11,49,23.20
2017,05,28,11,50,23.20
2017,05,28,11,51,23.20
2017,05,28,11,52,23.20
2017,05,28,11,53,23.20
2017,05,28,11,54,23.20
2017,05,28,11,55,23.30
2017,05,28,11,56,23.30
2017,05,28,11,57,23.30
2017,05,28,11,58,23.40
2017,05,28,11,59,23.40
2017,05,28,12,00,23.40
2017,05,28,12,01,23.40
2017,05,28,12,02,23.50
2017,05,28,12,03,23.50
2017,05,28,12,04,23.50
2017,05,28,12,05,23.50
2017,05,28,12,06,23.60
2017,05,28,12,07,23.60
2017,05,28,12,08,23.60
2017,05,28,12,09,23.60
2017,05,28,12,10,23.70
2017,05,28,12,11,23.70
2017,05,28,12,12,23.80
2017,05,28,12,13,23.80
2017,05,28,12,14,23.90
2017,05,28,12,15,23.90
2017,05,28,12,16,24.00
2017,05,28,12,17,24.00
2017,05,28,12,18,24.10
2017,05,28,12,19,24.10
2017,05,28,12,20,24.20
2017,05,28,12,21,24.30
2017,05,28,12,22,24.30
2017,05,28,12,23,24.30
2017,05,28,12,24,24.40
2017,05,28,12,25,24.30
2017,05,28,12,26,24.30
2017,05,28,12,27,24.30
2017,05,28,12,28,24.20
2017,05,28,12,29,24.20
2017,05,28,12,30,24.20
2017,05,28,12,31,24.20
2017,05,28,12,32,24.10
2017,05,28,12,33,24.10
2017,05,28,12,34,24.10
2017,05,28,12,35,24.10
2017,05,28,12,36,24.10
2017,05,28,12,37,24.00
2017,05,28,12,38,24.00
2017,05,28,12,39,24.00
2017,05,28,12,40,24.00
2017,05,28,12,41,23.90
2017,05,28,12,42,24.00
2017,05,28,12,43,24.00
2017,05,28,12,44,24.00
2017,05,28,12,45,24.10
2017,05,28,12,46,24.30
2017,05,28,12,47,24.40
2017,05,28,12,48,24.60
2017,05,28,12,49,24.70
2017,05,28,12,50,24.80
2017,05,28,12,51,24.80
2017,05,28,12,52,24.80
2017,05,28,12,53,24.90
2017,05,28,12,54,25.00
2017,05,28,12,55,25.00
2017,05,28,12,56,25.10
2017,05,28,12,57,25.10
2017,05,28,12,58,25.20
2017,05,28,12,59,25.20
2017,05,28,13,00,25.20
2017,05,28,13,01,25.30
2017,05,28,13,02,25.30
2017,05,28,13,03,25.30
2017,05,28,13,04,25.30
2017,05,28,13,05,25.30
2017,05,28,13,06,25.30
2017,05,28,13,07,25.40
2017,05,28,13,08,25.40
2017,05,28,13,09,25.40
2017,05,28,13,10,25.30
2017,05,28,13,11,25.30
2017,05,28,13,12,25.30
2017,05,28,13,13,25.30
2017,05,28,13,14,25.20
2017,05,28,13,15,25.20
2017,05,28,13,16,25.10
2017,05,28,13,17,25.10
2017,05,28,13,18,25.20
2017,05,28,13,19,25.20
2017,05,28,13,20,25.30
2017,05,28,13,21,25.40
2017,05,28,13,22,25.50
2017,05,28,13,23,25.60
2017,05,28,13,24,25.70
2017,05,28,13,25,25.70
2017,05,28,13,26,25.80
2017,05,28,13,27,25.80
2017,05,28,13,28,25.80
2017,05,28,13,29,25.80
2017,05,28,13,30,25.90
2017,05,28,13,31,26.00
2017,05,28,13,32,26.10
2017,05,28,13,33,26.10
2017,05,28,13,34,26.10
2017,05,28,13,35,26.10
2017,05,28,13,36,26.00
2017,05,28,13,37,26.00
2017,05,28,13,38,25.90
2017,05,28,13,39,25.80
2017,05,28,13,40,25.80
2017,05,28,13,41,25.80
2017,05,28,13,42,25.80
2017,05,28,13,43,25.90
2017,05,28,13,44,25.90
2017,05,28,13,45,26.00
2017,05,28,13,46,26.00
2017,05,28,13,47,26.00
2017,05,28,13,48,26.10
2017,05,28,13,49,26.20
2017,05,28,13,50,26.20
2017,05,28,13,51,26.30
2017,05,28,13,52,26.40
2017,05,28,13,53,26.50
2017,05,28,13,54,26.50
2017,05,28,13,55,26.60
2017,05,28,13,56,26.60
2017,05,28,13,57,26.70
2017,05,28,13,58,26.70
2017,05,28,13,59,26.80
2017,05,28,14,00,26.90
2017,05,28,14,01,26.90
2017,05,28,14,02,26.90
2017,05,28,14,03,26.90
2017,05,28,14,04,27.00
2017,05,28,14,05,27.00
2017,05,28,14,06,27.10
2017,05,28,14,07,27.10
2017,05,28,14,08,27.20
2017,05,28,14,09,27.30
2017,05,28,14,10,27.40
2017,05,28,14,11,27.50
2017,05,28,14,12,27.60
2017,05,28,14,13,27.60
2017,05,28,14,14,27.60
2017,05,28,14,15,27.70
2017,05,28,14,16,27.70
2017,05,28,14,17,27.70
2017,05,28,14,18,27.70
2017,05,28,14,19,27.80
2017,05,28,14,20,27.80
2017,05,28,14,21,27.80
2017,05,28,14,22,27.80
2017,05,28,14,23,27.80
2017,05,28,14,24,27.90
2017,05,28,14,25,27.90
2017,05,28,14,26,27.90
2017,05,28,14,27,27.90
2017,05,28,14,28,27.90
2017,05,28,14,29,27.90
2017,05,28,14,30,27.90
2017,05,28,14,31,28.00
2017,05,28,14,32,28.00
2017,05,28,14,33,28.10
2017,05,28,14,34,28.00
2017,05,28,14,35,28.00
2017,05,28,14,36,27.90
2017,05,28,14,37,27.90
2017,05,28,14,38,27.80
2017,05,28,14,39,27.70
2017,05,28,14,40,27.60
2017,05,28,14,41,27.50
2017,05,28,14,42,27.50
2017,05,28,14,43,27.50
2017,05,28,14,44,27.40
2017,05,28,14,45,27.50
2017,05,28,14,46,27.50
2017,05,28,14,47,27.40
2017,05,28,14,48,27.40
2017,05,28,14,49,27.40
2017,05,28,14,50,27.30
2017,05,28,14,51,27.30
2017,05,28,14,52,27.30
2017,05,28,14,53,27.30
2017,05,28,14,54,27.30
2017,05,28,14,55,27.20
2017,05,28,14,56,27.30
2017,05,28,14,57,27.30
2017,05,28,14,58,27.30
2017,05,28,14,59,27.20
2017,05,28,15,00,27.10
2017,05,28,15,01,26.90
2017,05,28,15,02,26.90
2017,05,28,15,03,26.80
2017,05,28,15,04,26.70
2017,05,28,15,05,26.70
2017,05,28,15,06,26.70
2017,05,28,15,07,26.70
2017,05,28,15,08,26.80
2017,05,28,15,09,26.80
2017,05,28,15,10,26.70
2017,05,28,15,11,26.70
2017,05,28,15,12,26.60
2017,05,28,15,13,26.60
2017,05,28,15,14,26.50
2017,05,28,15,15,26.50
2017,05,28,15,16,26.40
2017,05,28,15,17,26.40
2017,05,28,15,18,26.40
2017,05,28,15,19,26.40
2017,05,28,15,20,26.50
2017,05,28,15,21,26.60
2017,05,28,15,22,26.70
2017,05,28,15,23,26.70
2017,05,28,15,24,26.80
2017,05,28,15,25,26.80
2017,05,28,15,26,26.80
2017,05,28,15,27,26.80
2017,05,28,15,28,26.90
2017,05,28,15,29,26.90
2017,05,28,15,30,27.00
2017,05,28,15,31,27.00
2017,05,28,15,32,27.10
2017,05,28,15,33,27.10
2017,05,28,15,34,27.10
2017,05,28,15,35,27.20
2017,05,28,15,36,27.20
2017,05,28,15,37,27.20
2017,05,28,15,38,27.20
2017,05,28,15,39,27.10
2017,05,28,15,40,27.10
2017,05,28,15,41,27.10
2017,05,28,15,42,27.10
2017,05,28,15,43,27.10
2017,05,28,15,44,27.10
2017,05,28,15,45,27.10
2017,05,28,15,46,27.10
2017,05,28,15,47,27.10
2017,05,28,15,48,27.10
2017,05,28,15,49,27.10
2017,05,28,15,50,27.10
2017,05,28,15,51,27.10
2017,05,28,15,52,27.10
2017,05,28,15,53,27.20
2017,05,28,15,54,27.30
2017,05,28,15,55,27.30
2017,05,28,15,56,27.30
2017,05,28,15,57,27.40
2017,05,28,15,58,27.40
2017,05,28,15,59,27.40
2017,05,28,16,00,27.50
2017,05,28,16,01,27.50
2017,05,28,16,02,27.50
2017,05,28,16,03,27.50
2017,05,28,16,04,27.50
2017,05,28,16,05,27.50
2017,05,28,16,06,27.50
2017,05,28,16,07,27.50
2017,05,28,16,08,27.50
2017,05,28,16,09,27.50
2017,05,28,16,10,27.50
2017,05,28,16,11,27.50
2017,05,28,16,12,27.50
2017,05,28,16,13,27.50
2017,05,28,16,14,27.40
2017,05,28,16,15,27.40
2017,05,28,16,16,27.40
2017,05,28,16,17,27.40
2017,05,28,16,18,27.30
2017,05,28,16,19,27.30
2017,05,28,16,20,27.30
2017,05,28,16,21,27.40
2017,05,28,16,22,27.50
2017,05,28,16,23,27.50
2017,05,28,16,24,27.60
2017,05,28,16,25,27.60
2017,05,28,16,26,27.60
2017,05,28,16,27,27.50
2017,05,28,16,28,27.40
2017,05,28,16,29,27.30
2017,05,28,16,30,27.30
2017,05,28,16,31,27.30
2017,05,28,16,32,27.40
2017,05,28,16,33,27.40
2017,05,28,16,34,27.30
2017,05,28,16,35,27.30
2017,05,28,16,36,27.30
2017,05,28,16,37,27.20
2017,05,28,16,38,27.20
2017,05,28,16,39,27.20
2017,05,28,16,40,27.20
2017,05,28,16,41,27.20
2017,05,28,16,42,27.20
2017,05,28,16,43,27.20
2017,05,28,16,44,27.30
2017,05,28,16,45,27.30
2017,05,28,16,46,27.40
2017,05,28,16,47,27.40
2017,05,28,16,48,27.40
2017,05,28,16,49,27.40
2017,05,28,16,50,27.30
2017,05,28,16,51,27.30
2017,05,28,16,52,27.20
2017,05,28,16,53,27.20
2017,05,28,16,54,27.30
2017,05,28,16,55,27.30
2017,05,28,16,56,27.30
2017,05,28,16,57,27.30
2017,05,28,16,58,27.30
2017,05,28,16,59,27.30
2017,05,28,17,00,27.30
2017,05,28,17,01,27.30
2017,05,28,17,02,27.30
2017,05,28,17,03,27.30
2017,05,28,17,04,27.30
2017,05,28,17,05,27.40
2017,05,28,17,06,27.40
2017,05,28,17,07,27.50
2017,05,28,17,08,27.50
2017,05,28,17,09,27.60
2017,05,28,17,10,27.70
2017,05,28,17,11,27.70
2017,05,28,17,12,27.80
2017,05,28,17,13,27.80
2017,05,28,17,14,27.80
2017,05,28,17,15,27.80
2017,05,28,17,16,27.90
2017,05,28,17,17,27.90
2017,05,28,17,18,28.00
2017,05,28,17,19,28.00